Data supplied by UK-AIR on 5/4/2008
All Data GMT hour ending 
Status: R =Ratified P=Provisional,P*=As supplied
,,Exeter Roadside,,,,,,,,,,,,,,,,,,,,,,,
Date,time,"Carbon monoxide",status,unit,"Nitric oxide",status,unit,"Nitrogen dioxide",status,unit,"Nitrogen oxides as nitrogen dioxide",status,unit,"Ozone",status,unit,"Sulphur dioxide",status,unit
 
01-01-1997,01:00,,,,,,,,,,,,,,,,,,
01-01-1997,02:00,,,,,,,,,,,,,,,,,,
01-01-1997,03:00,,,,,,,,,,,,,,,,,,
01-01-1997,04:00,,,,,,,,,,,,,,,,,,
01-01-1997,05:00,,,,,,,,,,,,,,,,,,
01-01-1997,06:00,,,,,,,,,,,,,,,,,,
01-01-1997,07:00,,,,,,,,,,,,,,,,,,
01-01-1997,08:00,,,,,,,,,,,,,,,,,,
01-01-1997,09:00,,,,,,,,,,,,,,,,,,
01-01-1997,10:00,,,,,,,,,,,,,,,,,,
01-01-1997,11:00,,,,,,,,,,,,,,,,,,
01-01-1997,12:00,,,,,,,,,,,,,,,,,,
01-01-1997,13:00,,,,,,,,,,,,,,,,,,
01-01-1997,14:00,,,,,,,,,,,,,,,,,,
01-01-1997,15:00,,,,,,,,,,,,,,,,,,
01-01-1997,16:00,,,,,,,,,,,,,,,,,,
01-01-1997,17:00,,,,,,,,,,,,,,,,,,
01-01-1997,18:00,,,,,,,,,,,,,,,,,,
01-01-1997,19:00,1.5,R,mgm-3,40,R,ugm-3,40,R,ugm-3,101,R,ugm-3,38,R,ugm-3,,,
01-01-1997,20:00,1.4,R,mgm-3,35,R,ugm-3,40,R,ugm-3,94,R,ugm-3,34,R,ugm-3,,,
01-01-1997,21:00,1.6,R,mgm-3,40,R,ugm-3,42,R,ugm-3,103,R,ugm-3,34,R,ugm-3,,,
01-01-1997,22:00,2.1,R,mgm-3,39,R,ugm-3,38,R,ugm-3,97,R,ugm-3,34,R,ugm-3,,,
01-01-1997,23:00,1.0,R,mgm-3,24,R,ugm-3,29,R,ugm-3,65,R,ugm-3,40,R,ugm-3,,,
01-01-1997,24:00,0.8,R,mgm-3,18,R,ugm-3,29,R,ugm-3,55,R,ugm-3,36,R,ugm-3,,,
02-01-1997,01:00,0.6,R,mgm-3,5,R,ugm-3,23,R,ugm-3,31,R,ugm-3,38,R,ugm-3,,,
02-01-1997,02:00,0.3,R,mgm-3,6,R,ugm-3,25,R,ugm-3,34,R,ugm-3,40,R,ugm-3,8,R,ugm-3
02-01-1997,03:00,0.3,R,mgm-3,3,R,ugm-3,17,R,ugm-3,21,R,ugm-3,42,R,ugm-3,5,R,ugm-3
02-01-1997,04:00,0.3,R,mgm-3,3,R,ugm-3,15,R,ugm-3,19,R,ugm-3,44,R,ugm-3,5,R,ugm-3
02-01-1997,05:00,0.6,R,mgm-3,16,R,ugm-3,59,R,ugm-3,84,R,ugm-3,14,R,ugm-3,8,R,ugm-3
02-01-1997,06:00,0.7,R,mgm-3,23,R,ugm-3,59,R,ugm-3,94,R,ugm-3,14,R,ugm-3,5,R,ugm-3
02-01-1997,07:00,1.2,R,mgm-3,58,R,ugm-3,50,R,ugm-3,138,R,ugm-3,16,R,ugm-3,8,R,ugm-3
02-01-1997,08:00,3.4,R,mgm-3,124,R,ugm-3,65,R,ugm-3,254,R,ugm-3,8,R,ugm-3,13,R,ugm-3
02-01-1997,09:00,5.5,R,mgm-3,196,R,ugm-3,84,R,ugm-3,384,R,ugm-3,10,R,ugm-3,13,R,ugm-3
02-01-1997,10:00,5.8,R,mgm-3,215,R,ugm-3,90,R,ugm-3,418,R,ugm-3,8,R,ugm-3,16,R,ugm-3
02-01-1997,11:00,5.6,R,mgm-3,224,R,ugm-3,80,R,ugm-3,422,R,ugm-3,10,R,ugm-3,21,R,ugm-3
02-01-1997,12:00,6.8,R,mgm-3,241,R,ugm-3,84,R,ugm-3,453,R,ugm-3,12,R,ugm-3,24,R,ugm-3
02-01-1997,13:00,7.4,R,mgm-3,255,R,ugm-3,92,R,ugm-3,481,R,ugm-3,10,R,ugm-3,21,R,ugm-3
02-01-1997,14:00,9.0,R,mgm-3,298,R,ugm-3,84,R,ugm-3,539,R,ugm-3,10,R,ugm-3,29,R,ugm-3
02-01-1997,15:00,8.9,R,mgm-3,271,R,ugm-3,90,R,ugm-3,504,R,ugm-3,10,R,ugm-3,40,R,ugm-3
02-01-1997,16:00,11.1,R,mgm-3,381,R,ugm-3,86,R,ugm-3,669,R,ugm-3,10,R,ugm-3,45,R,ugm-3
02-01-1997,17:00,17.2,R,mgm-3,551,R,ugm-3,90,R,ugm-3,932,R,ugm-3,12,R,ugm-3,48,R,ugm-3
02-01-1997,18:00,18.8,R,mgm-3,508,R,ugm-3,94,R,ugm-3,869,R,ugm-3,10,R,ugm-3,40,R,ugm-3
02-01-1997,19:00,9.5,R,mgm-3,278,R,ugm-3,76,R,ugm-3,500,R,ugm-3,4,R,ugm-3,27,R,ugm-3
02-01-1997,20:00,5.3,R,mgm-3,210,R,ugm-3,71,R,ugm-3,392,R,ugm-3,6,R,ugm-3,21,R,ugm-3
02-01-1997,21:00,5.1,R,mgm-3,175,R,ugm-3,69,R,ugm-3,336,R,ugm-3,6,R,ugm-3,24,R,ugm-3
02-01-1997,22:00,4.9,R,mgm-3,171,R,ugm-3,69,R,ugm-3,330,R,ugm-3,6,R,ugm-3,32,R,ugm-3
02-01-1997,23:00,3.9,R,mgm-3,94,R,ugm-3,61,R,ugm-3,204,R,ugm-3,4,R,ugm-3,24,R,ugm-3
02-01-1997,24:00,3.5,R,mgm-3,73,R,ugm-3,57,R,ugm-3,168,R,ugm-3,8,R,ugm-3,24,R,ugm-3
03-01-1997,01:00,1.3,R,mgm-3,29,R,ugm-3,57,R,ugm-3,101,R,ugm-3,6,R,ugm-3,45,R,ugm-3
03-01-1997,02:00,1.4,R,mgm-3,28,R,ugm-3,57,R,ugm-3,99,R,ugm-3,6,R,ugm-3,37,R,ugm-3
03-01-1997,03:00,0.8,R,mgm-3,18,R,ugm-3,48,R,ugm-3,74,R,ugm-3,10,R,ugm-3,32,R,ugm-3
03-01-1997,04:00,0.1,R,mgm-3,4,R,ugm-3,31,R,ugm-3,36,R,ugm-3,20,R,ugm-3,29,R,ugm-3
03-01-1997,05:00,0.1,R,mgm-3,4,R,ugm-3,29,R,ugm-3,34,R,ugm-3,22,R,ugm-3,19,R,ugm-3
03-01-1997,06:00,0.1,R,mgm-3,8,R,ugm-3,25,R,ugm-3,36,R,ugm-3,28,R,ugm-3,13,R,ugm-3
03-01-1997,07:00,0.6,R,mgm-3,31,R,ugm-3,36,R,ugm-3,84,R,ugm-3,26,R,ugm-3,13,R,ugm-3
03-01-1997,08:00,2.2,R,mgm-3,100,R,ugm-3,55,R,ugm-3,208,R,ugm-3,14,R,ugm-3,19,R,ugm-3
03-01-1997,09:00,5.0,R,mgm-3,205,R,ugm-3,78,R,ugm-3,392,R,ugm-3,12,R,ugm-3,24,R,ugm-3
03-01-1997,10:00,5.3,R,mgm-3,210,R,ugm-3,74,R,ugm-3,395,R,ugm-3,12,R,ugm-3,24,R,ugm-3
03-01-1997,11:00,5.0,R,mgm-3,178,R,ugm-3,73,R,ugm-3,344,R,ugm-3,12,R,ugm-3,21,R,ugm-3
03-01-1997,12:00,6.8,R,mgm-3,208,R,ugm-3,71,R,ugm-3,388,R,ugm-3,12,R,ugm-3,27,R,ugm-3
03-01-1997,13:00,6.3,R,mgm-3,216,R,ugm-3,73,R,ugm-3,403,R,ugm-3,12,R,ugm-3,27,R,ugm-3
03-01-1997,14:00,7.0,R,mgm-3,248,R,ugm-3,76,R,ugm-3,455,R,ugm-3,10,R,ugm-3,32,R,ugm-3
03-01-1997,15:00,8.7,R,mgm-3,250,R,ugm-3,80,R,ugm-3,462,R,ugm-3,12,R,ugm-3,35,R,ugm-3
03-01-1997,16:00,11.1,R,mgm-3,300,R,ugm-3,92,R,ugm-3,550,R,ugm-3,12,R,ugm-3,37,R,ugm-3
03-01-1997,17:00,10.8,R,mgm-3,294,R,ugm-3,82,R,ugm-3,531,R,ugm-3,10,R,ugm-3,35,R,ugm-3
03-01-1997,18:00,12.9,R,mgm-3,279,R,ugm-3,82,R,ugm-3,508,R,ugm-3,12,R,ugm-3,29,R,ugm-3
03-01-1997,19:00,8.4,R,mgm-3,181,R,ugm-3,71,R,ugm-3,348,R,ugm-3,10,R,ugm-3,24,R,ugm-3
03-01-1997,20:00,3.4,R,mgm-3,108,R,ugm-3,57,R,ugm-3,222,R,ugm-3,16,R,ugm-3,16,R,ugm-3
03-01-1997,21:00,3.2,R,mgm-3,86,R,ugm-3,52,R,ugm-3,183,R,ugm-3,18,R,ugm-3,19,R,ugm-3
03-01-1997,22:00,3.4,R,mgm-3,78,R,ugm-3,46,R,ugm-3,164,R,ugm-3,20,R,ugm-3,21,R,ugm-3
03-01-1997,23:00,2.6,R,mgm-3,54,R,ugm-3,42,R,ugm-3,124,R,ugm-3,22,R,ugm-3,21,R,ugm-3
03-01-1997,24:00,2.8,R,mgm-3,60,R,ugm-3,38,R,ugm-3,130,R,ugm-3,24,R,ugm-3,16,R,ugm-3
04-01-1997,01:00,3.0,R,mgm-3,46,R,ugm-3,38,R,ugm-3,109,R,ugm-3,22,R,ugm-3,19,R,ugm-3
04-01-1997,02:00,0.5,R,mgm-3,14,R,ugm-3,29,R,ugm-3,50,R,ugm-3,32,R,ugm-3,16,R,ugm-3
04-01-1997,03:00,0.2,R,mgm-3,6,R,ugm-3,19,R,ugm-3,29,R,ugm-3,36,R,ugm-3,11,R,ugm-3
04-01-1997,04:00,0.1,R,mgm-3,5,R,ugm-3,15,R,ugm-3,23,R,ugm-3,38,R,ugm-3,11,R,ugm-3
04-01-1997,05:00,0.1,R,mgm-3,3,R,ugm-3,11,R,ugm-3,15,R,ugm-3,38,R,ugm-3,11,R,ugm-3
04-01-1997,06:00,0.2,R,mgm-3,14,R,ugm-3,17,R,ugm-3,38,R,ugm-3,38,R,ugm-3,8,R,ugm-3
04-01-1997,07:00,0.1,R,mgm-3,14,R,ugm-3,19,R,ugm-3,40,R,ugm-3,40,R,ugm-3,8,R,ugm-3
04-01-1997,08:00,0.9,R,mgm-3,46,R,ugm-3,34,R,ugm-3,105,R,ugm-3,32,R,ugm-3,8,R,ugm-3
04-01-1997,09:00,3.0,R,mgm-3,85,R,ugm-3,53,R,ugm-3,183,R,ugm-3,22,R,ugm-3,11,R,ugm-3
04-01-1997,10:00,4.6,R,mgm-3,149,R,ugm-3,63,R,ugm-3,290,R,ugm-3,16,R,ugm-3,13,R,ugm-3
04-01-1997,11:00,5.1,R,mgm-3,196,R,ugm-3,71,R,ugm-3,371,R,ugm-3,10,R,ugm-3,13,R,ugm-3
04-01-1997,12:00,7.2,R,mgm-3,226,R,ugm-3,76,R,ugm-3,422,R,ugm-3,10,R,ugm-3,16,R,ugm-3
04-01-1997,13:00,7.3,R,mgm-3,265,R,ugm-3,78,R,ugm-3,483,R,ugm-3,10,R,ugm-3,16,R,ugm-3
04-01-1997,14:00,7.1,R,mgm-3,225,R,ugm-3,74,R,ugm-3,418,R,ugm-3,10,R,ugm-3,13,R,ugm-3
04-01-1997,15:00,8.6,R,mgm-3,251,R,ugm-3,78,R,ugm-3,462,R,ugm-3,10,R,ugm-3,16,R,ugm-3
04-01-1997,16:00,8.8,R,mgm-3,261,R,ugm-3,82,R,ugm-3,481,R,ugm-3,10,R,ugm-3,16,R,ugm-3
04-01-1997,17:00,9.9,R,mgm-3,301,R,ugm-3,78,R,ugm-3,539,R,ugm-3,10,R,ugm-3,16,R,ugm-3
04-01-1997,18:00,10.3,R,mgm-3,321,R,ugm-3,78,R,ugm-3,569,R,ugm-3,10,R,ugm-3,19,R,ugm-3
04-01-1997,19:00,5.8,R,mgm-3,164,R,ugm-3,61,R,ugm-3,311,R,ugm-3,14,R,ugm-3,13,R,ugm-3
04-01-1997,20:00,2.1,R,mgm-3,80,R,ugm-3,48,R,ugm-3,170,R,ugm-3,22,R,ugm-3,8,R,ugm-3
04-01-1997,21:00,2.9,R,mgm-3,99,R,ugm-3,55,R,ugm-3,206,R,ugm-3,20,R,ugm-3,11,R,ugm-3
04-01-1997,22:00,2.6,R,mgm-3,74,R,ugm-3,48,R,ugm-3,160,R,ugm-3,20,R,ugm-3,8,R,ugm-3
04-01-1997,23:00,2.2,R,mgm-3,60,R,ugm-3,42,R,ugm-3,134,R,ugm-3,24,R,ugm-3,8,R,ugm-3
04-01-1997,24:00,2.1,R,mgm-3,43,R,ugm-3,34,R,ugm-3,99,R,ugm-3,32,R,ugm-3,5,R,ugm-3
05-01-1997,01:00,1.2,R,mgm-3,26,R,ugm-3,25,R,ugm-3,65,R,ugm-3,38,R,ugm-3,5,R,ugm-3
05-01-1997,02:00,1.0,R,mgm-3,20,R,ugm-3,27,R,ugm-3,57,R,ugm-3,38,R,ugm-3,5,R,ugm-3
05-01-1997,03:00,0.5,R,mgm-3,14,R,ugm-3,17,R,ugm-3,38,R,ugm-3,42,R,ugm-3,5,R,ugm-3
05-01-1997,04:00,0.1,R,mgm-3,3,R,ugm-3,11,R,ugm-3,15,R,ugm-3,48,R,ugm-3,5,R,ugm-3
05-01-1997,05:00,0.2,R,mgm-3,5,R,ugm-3,10,R,ugm-3,17,R,ugm-3,48,R,ugm-3,3,R,ugm-3
05-01-1997,06:00,0.1,R,mgm-3,1,R,ugm-3,6,R,ugm-3,8,R,ugm-3,52,R,ugm-3,3,R,ugm-3
05-01-1997,07:00,0.1,R,mgm-3,5,R,ugm-3,11,R,ugm-3,19,R,ugm-3,50,R,ugm-3,3,R,ugm-3
05-01-1997,08:00,0.7,R,mgm-3,16,R,ugm-3,19,R,ugm-3,44,R,ugm-3,44,R,ugm-3,3,R,ugm-3
05-01-1997,09:00,0.5,R,mgm-3,14,R,ugm-3,17,R,ugm-3,38,R,ugm-3,48,R,ugm-3,3,R,ugm-3
05-01-1997,10:00,0.8,R,mgm-3,21,R,ugm-3,23,R,ugm-3,55,R,ugm-3,44,R,ugm-3,3,R,ugm-3
05-01-1997,11:00,1.4,R,mgm-3,21,R,ugm-3,25,R,ugm-3,57,R,ugm-3,44,R,ugm-3,3,R,ugm-3
05-01-1997,12:00,2.1,R,mgm-3,48,R,ugm-3,36,R,ugm-3,109,R,ugm-3,36,R,ugm-3,5,R,ugm-3
05-01-1997,13:00,3.1,R,mgm-3,86,R,ugm-3,48,R,ugm-3,180,R,ugm-3,28,R,ugm-3,5,R,ugm-3
05-01-1997,14:00,2.4,R,mgm-3,73,R,ugm-3,50,R,ugm-3,160,R,ugm-3,28,R,ugm-3,5,R,ugm-3
05-01-1997,15:00,3.9,R,mgm-3,93,R,ugm-3,53,R,ugm-3,195,R,ugm-3,24,R,ugm-3,11,R,ugm-3
05-01-1997,16:00,3.7,R,mgm-3,88,R,ugm-3,59,R,ugm-3,193,R,ugm-3,18,R,ugm-3,8,R,ugm-3
05-01-1997,17:00,3.6,R,mgm-3,90,R,ugm-3,63,R,ugm-3,201,R,ugm-3,16,R,ugm-3,11,R,ugm-3
05-01-1997,18:00,2.9,R,mgm-3,99,R,ugm-3,63,R,ugm-3,214,R,ugm-3,16,R,ugm-3,8,R,ugm-3
05-01-1997,19:00,1.6,R,mgm-3,45,R,ugm-3,40,R,ugm-3,109,R,ugm-3,26,R,ugm-3,5,R,ugm-3
05-01-1997,20:00,1.5,R,mgm-3,49,R,ugm-3,36,R,ugm-3,111,R,ugm-3,34,R,ugm-3,8,R,ugm-3
05-01-1997,21:00,1.5,R,mgm-3,40,R,ugm-3,32,R,ugm-3,94,R,ugm-3,36,R,ugm-3,5,R,ugm-3
05-01-1997,22:00,1.9,R,mgm-3,41,R,ugm-3,34,R,ugm-3,97,R,ugm-3,36,R,ugm-3,5,R,ugm-3
05-01-1997,23:00,1.3,R,mgm-3,28,R,ugm-3,31,R,ugm-3,73,R,ugm-3,36,R,ugm-3,5,R,ugm-3
05-01-1997,24:00,1.0,R,mgm-3,23,R,ugm-3,25,R,ugm-3,59,R,ugm-3,40,R,ugm-3,5,R,ugm-3
06-01-1997,01:00,0.5,R,mgm-3,13,R,ugm-3,19,R,ugm-3,38,R,ugm-3,48,R,ugm-3,3,R,ugm-3
06-01-1997,02:00,0.3,R,mgm-3,3,R,ugm-3,21,R,ugm-3,25,R,ugm-3,50,R,ugm-3,3,R,ugm-3
06-01-1997,03:00,0.2,R,mgm-3,3,R,ugm-3,17,R,ugm-3,21,R,ugm-3,48,R,ugm-3,3,R,ugm-3
06-01-1997,04:00,0.2,R,mgm-3,3,R,ugm-3,17,R,ugm-3,21,R,ugm-3,46,R,ugm-3,5,R,ugm-3
06-01-1997,05:00,0.5,R,mgm-3,3,R,ugm-3,17,R,ugm-3,21,R,ugm-3,46,R,ugm-3,5,R,ugm-3
06-01-1997,06:00,0.5,R,mgm-3,13,R,ugm-3,29,R,ugm-3,48,R,ugm-3,36,R,ugm-3,8,R,ugm-3
06-01-1997,07:00,0.9,R,mgm-3,40,R,ugm-3,34,R,ugm-3,96,R,ugm-3,26,R,ugm-3,19,R,ugm-3
06-01-1997,08:00,3.1,R,mgm-3,,,,,,,,,,14,R,ugm-3,29,R,ugm-3
06-01-1997,09:00,7.0,R,mgm-3,258,R,ugm-3,74,R,ugm-3,468,R,ugm-3,12,R,ugm-3,40,R,ugm-3
06-01-1997,10:00,6.7,R,mgm-3,224,R,ugm-3,78,R,ugm-3,420,R,ugm-3,10,R,ugm-3,37,R,ugm-3
06-01-1997,11:00,5.0,R,mgm-3,183,R,ugm-3,71,R,ugm-3,350,R,ugm-3,10,R,ugm-3,37,R,ugm-3
06-01-1997,12:00,5.8,R,mgm-3,253,R,ugm-3,74,R,ugm-3,460,R,ugm-3,10,R,ugm-3,40,R,ugm-3
06-01-1997,13:00,7.2,R,mgm-3,298,R,ugm-3,73,R,ugm-3,527,R,ugm-3,10,R,ugm-3,43,R,ugm-3
06-01-1997,14:00,7.4,R,mgm-3,246,R,ugm-3,73,R,ugm-3,449,R,ugm-3,10,R,ugm-3,40,R,ugm-3
06-01-1997,15:00,7.2,R,mgm-3,250,R,ugm-3,74,R,ugm-3,456,R,ugm-3,10,R,ugm-3,37,R,ugm-3
06-01-1997,16:00,8.2,R,mgm-3,273,R,ugm-3,76,R,ugm-3,493,R,ugm-3,10,R,ugm-3,35,R,ugm-3
06-01-1997,17:00,7.8,R,mgm-3,246,R,ugm-3,73,R,ugm-3,449,R,ugm-3,10,R,ugm-3,35,R,ugm-3
06-01-1997,18:00,10.1,R,mgm-3,241,R,ugm-3,74,R,ugm-3,443,R,ugm-3,10,R,ugm-3,37,R,ugm-3
06-01-1997,19:00,6.4,R,mgm-3,146,R,ugm-3,65,R,ugm-3,288,R,ugm-3,10,R,ugm-3,27,R,ugm-3
06-01-1997,20:00,3.8,R,mgm-3,91,R,ugm-3,57,R,ugm-3,197,R,ugm-3,12,R,ugm-3,24,R,ugm-3
06-01-1997,21:00,3.1,R,mgm-3,83,R,ugm-3,67,R,ugm-3,193,R,ugm-3,10,R,ugm-3,27,R,ugm-3
06-01-1997,22:00,3.7,R,mgm-3,83,R,ugm-3,65,R,ugm-3,191,R,ugm-3,10,R,ugm-3,21,R,ugm-3
06-01-1997,23:00,2.6,R,mgm-3,44,R,ugm-3,63,R,ugm-3,130,R,ugm-3,10,R,ugm-3,16,R,ugm-3
06-01-1997,24:00,1.9,R,mgm-3,28,R,ugm-3,55,R,ugm-3,97,R,ugm-3,10,R,ugm-3,16,R,ugm-3
07-01-1997,01:00,0.8,R,mgm-3,13,R,ugm-3,46,R,ugm-3,65,R,ugm-3,14,R,ugm-3,13,R,ugm-3
07-01-1997,02:00,0.8,R,mgm-3,13,R,ugm-3,50,R,ugm-3,69,R,ugm-3,10,R,ugm-3,11,R,ugm-3
07-01-1997,03:00,0.7,R,mgm-3,16,R,ugm-3,46,R,ugm-3,71,R,ugm-3,6,R,ugm-3,13,R,ugm-3
07-01-1997,04:00,0.7,R,mgm-3,11,R,ugm-3,44,R,ugm-3,61,R,ugm-3,6,R,ugm-3,13,R,ugm-3
07-01-1997,05:00,0.6,R,mgm-3,6,R,ugm-3,36,R,ugm-3,46,R,ugm-3,14,R,ugm-3,11,R,ugm-3
07-01-1997,06:00,0.6,R,mgm-3,11,R,ugm-3,38,R,ugm-3,55,R,ugm-3,12,R,ugm-3,13,R,ugm-3
07-01-1997,07:00,1.4,R,mgm-3,85,R,ugm-3,61,R,ugm-3,191,R,ugm-3,8,R,ugm-3,24,R,ugm-3
07-01-1997,08:00,3.8,R,mgm-3,165,R,ugm-3,76,R,ugm-3,329,R,ugm-3,10,R,ugm-3,37,R,ugm-3
07-01-1997,09:00,6.7,R,mgm-3,319,R,ugm-3,90,R,ugm-3,577,R,ugm-3,10,R,ugm-3,45,R,ugm-3
07-01-1997,10:00,7.1,R,mgm-3,221,R,ugm-3,74,R,ugm-3,413,R,ugm-3,8,R,ugm-3,32,R,ugm-3
07-01-1997,11:00,6.1,R,mgm-3,209,R,ugm-3,76,R,ugm-3,395,R,ugm-3,10,R,ugm-3,24,R,ugm-3
07-01-1997,12:00,4.8,R,mgm-3,166,R,ugm-3,69,R,ugm-3,323,R,ugm-3,12,R,ugm-3,27,R,ugm-3
07-01-1997,13:00,7.4,R,mgm-3,248,R,ugm-3,80,R,ugm-3,458,R,ugm-3,10,R,ugm-3,35,R,ugm-3
07-01-1997,14:00,7.3,R,mgm-3,231,R,ugm-3,78,R,ugm-3,432,R,ugm-3,10,R,ugm-3,35,R,ugm-3
07-01-1997,15:00,7.1,R,mgm-3,246,R,ugm-3,80,R,ugm-3,456,R,ugm-3,10,R,ugm-3,32,R,ugm-3
07-01-1997,16:00,8.2,R,mgm-3,240,R,ugm-3,84,R,ugm-3,451,R,ugm-3,10,R,ugm-3,24,R,ugm-3
07-01-1997,17:00,10.9,R,mgm-3,274,R,ugm-3,86,R,ugm-3,504,R,ugm-3,10,R,ugm-3,21,R,ugm-3
07-01-1997,18:00,11.4,R,mgm-3,224,R,ugm-3,76,R,ugm-3,418,R,ugm-3,10,R,ugm-3,24,R,ugm-3
07-01-1997,19:00,5.9,R,mgm-3,145,R,ugm-3,67,R,ugm-3,288,R,ugm-3,10,R,ugm-3,19,R,ugm-3
07-01-1997,20:00,3.8,R,mgm-3,119,R,ugm-3,59,R,ugm-3,241,R,ugm-3,10,R,ugm-3,29,R,ugm-3
07-01-1997,21:00,2.4,R,mgm-3,51,R,ugm-3,48,R,ugm-3,126,R,ugm-3,12,R,ugm-3,37,R,ugm-3
07-01-1997,22:00,2.8,R,mgm-3,40,R,ugm-3,44,R,ugm-3,105,R,ugm-3,12,R,ugm-3,45,R,ugm-3
07-01-1997,23:00,3.1,R,mgm-3,64,R,ugm-3,44,R,ugm-3,141,R,ugm-3,14,R,ugm-3,40,R,ugm-3
07-01-1997,24:00,2.0,R,mgm-3,31,R,ugm-3,36,R,ugm-3,84,R,ugm-3,16,R,ugm-3,35,R,ugm-3
08-01-1997,01:00,1.4,R,mgm-3,10,R,ugm-3,29,R,ugm-3,44,R,ugm-3,22,R,ugm-3,21,R,ugm-3
08-01-1997,02:00,0.8,R,mgm-3,5,R,ugm-3,36,R,ugm-3,44,R,ugm-3,20,R,ugm-3,21,R,ugm-3
08-01-1997,03:00,0.7,R,mgm-3,5,R,ugm-3,31,R,ugm-3,38,R,ugm-3,18,R,ugm-3,16,R,ugm-3
08-01-1997,04:00,0.8,R,mgm-3,6,R,ugm-3,31,R,ugm-3,40,R,ugm-3,18,R,ugm-3,13,R,ugm-3
08-01-1997,05:00,0.8,R,mgm-3,4,R,ugm-3,34,R,ugm-3,40,R,ugm-3,20,R,ugm-3,11,R,ugm-3
08-01-1997,06:00,0.8,R,mgm-3,4,R,ugm-3,29,R,ugm-3,34,R,ugm-3,20,R,ugm-3,11,R,ugm-3
08-01-1997,07:00,1.3,R,mgm-3,40,R,ugm-3,38,R,ugm-3,99,R,ugm-3,16,R,ugm-3,11,R,ugm-3
08-01-1997,08:00,2.2,R,mgm-3,76,R,ugm-3,44,R,ugm-3,160,R,ugm-3,12,R,ugm-3,13,R,ugm-3
08-01-1997,09:00,5.8,R,mgm-3,221,R,ugm-3,67,R,ugm-3,405,R,ugm-3,10,R,ugm-3,24,R,ugm-3
08-01-1997,10:00,4.6,R,mgm-3,144,R,ugm-3,65,R,ugm-3,285,R,ugm-3,10,R,ugm-3,24,R,ugm-3
08-01-1997,11:00,5.0,R,mgm-3,153,R,ugm-3,67,R,ugm-3,300,R,ugm-3,12,R,ugm-3,21,R,ugm-3
08-01-1997,12:00,6.0,R,mgm-3,185,R,ugm-3,73,R,ugm-3,355,R,ugm-3,10,R,ugm-3,24,R,ugm-3
08-01-1997,13:00,6.6,R,mgm-3,208,R,ugm-3,73,R,ugm-3,390,R,ugm-3,10,R,ugm-3,24,R,ugm-3
08-01-1997,14:00,8.8,R,mgm-3,206,R,ugm-3,74,R,ugm-3,390,R,ugm-3,10,R,ugm-3,27,R,ugm-3
08-01-1997,15:00,,,,,,,,,,,,,,,,,,
08-01-1997,16:00,9.7,R,mgm-3,243,R,ugm-3,80,R,ugm-3,451,R,ugm-3,8,R,ugm-3,21,R,ugm-3
08-01-1997,17:00,10.6,R,mgm-3,209,R,ugm-3,80,R,ugm-3,399,R,ugm-3,10,R,ugm-3,24,R,ugm-3
08-01-1997,18:00,12.9,R,mgm-3,225,R,ugm-3,76,R,ugm-3,420,R,ugm-3,10,R,ugm-3,27,R,ugm-3
08-01-1997,19:00,5.1,R,mgm-3,120,R,ugm-3,61,R,ugm-3,244,R,ugm-3,10,R,ugm-3,16,R,ugm-3
08-01-1997,20:00,3.4,R,mgm-3,76,R,ugm-3,53,R,ugm-3,170,R,ugm-3,12,R,ugm-3,13,R,ugm-3
08-01-1997,21:00,3.6,R,mgm-3,83,R,ugm-3,50,R,ugm-3,176,R,ugm-3,12,R,ugm-3,11,R,ugm-3
08-01-1997,22:00,3.4,R,mgm-3,60,R,ugm-3,48,R,ugm-3,139,R,ugm-3,12,R,ugm-3,11,R,ugm-3
08-01-1997,23:00,2.4,R,mgm-3,59,R,ugm-3,65,R,ugm-3,155,R,ugm-3,8,R,ugm-3,16,R,ugm-3
08-01-1997,24:00,2.6,R,mgm-3,43,R,ugm-3,63,R,ugm-3,128,R,ugm-3,6,R,ugm-3,16,R,ugm-3
09-01-1997,01:00,1.3,R,mgm-3,15,R,ugm-3,53,R,ugm-3,76,R,ugm-3,10,R,ugm-3,16,R,ugm-3
09-01-1997,02:00,0.8,R,mgm-3,6,R,ugm-3,55,R,ugm-3,65,R,ugm-3,10,R,ugm-3,24,R,ugm-3
09-01-1997,03:00,0.7,R,mgm-3,4,R,ugm-3,52,R,ugm-3,57,R,ugm-3,10,R,ugm-3,29,R,ugm-3
09-01-1997,04:00,0.6,R,mgm-3,3,R,ugm-3,40,R,ugm-3,44,R,ugm-3,16,R,ugm-3,27,R,ugm-3
09-01-1997,05:00,0.3,R,mgm-3,4,R,ugm-3,32,R,ugm-3,38,R,ugm-3,18,R,ugm-3,32,R,ugm-3
09-01-1997,06:00,0.5,R,mgm-3,10,R,ugm-3,31,R,ugm-3,46,R,ugm-3,20,R,ugm-3,21,R,ugm-3
09-01-1997,07:00,1.4,R,mgm-3,56,R,ugm-3,44,R,ugm-3,130,R,ugm-3,12,R,ugm-3,13,R,ugm-3
09-01-1997,08:00,3.6,R,mgm-3,118,R,ugm-3,57,R,ugm-3,237,R,ugm-3,6,R,ugm-3,19,R,ugm-3
09-01-1997,09:00,11.9,R,mgm-3,296,R,ugm-3,78,R,ugm-3,531,R,ugm-3,10,R,ugm-3,29,R,ugm-3
09-01-1997,10:00,8.6,R,mgm-3,279,R,ugm-3,73,R,ugm-3,499,R,ugm-3,6,R,ugm-3,27,R,ugm-3
09-01-1997,11:00,6.1,R,mgm-3,256,R,ugm-3,76,R,ugm-3,468,R,ugm-3,6,R,ugm-3,27,R,ugm-3
09-01-1997,12:00,,,,276,R,ugm-3,76,R,ugm-3,499,R,ugm-3,6,R,ugm-3,32,R,ugm-3
09-01-1997,13:00,8.1,R,mgm-3,296,R,ugm-3,76,R,ugm-3,529,R,ugm-3,8,R,ugm-3,35,R,ugm-3
09-01-1997,14:00,8.6,R,mgm-3,298,R,ugm-3,74,R,ugm-3,529,R,ugm-3,6,R,ugm-3,35,R,ugm-3
09-01-1997,15:00,9.0,R,mgm-3,371,R,ugm-3,78,R,ugm-3,646,R,ugm-3,8,R,ugm-3,40,R,ugm-3
09-01-1997,16:00,10.9,R,mgm-3,359,R,ugm-3,86,R,ugm-3,634,R,ugm-3,6,R,ugm-3,37,R,ugm-3
09-01-1997,17:00,16.6,R,mgm-3,409,R,ugm-3,76,R,ugm-3,701,R,ugm-3,8,R,ugm-3,43,R,ugm-3
09-01-1997,18:00,15.5,R,mgm-3,334,R,ugm-3,69,R,ugm-3,579,R,ugm-3,6,R,ugm-3,40,R,ugm-3
09-01-1997,19:00,10.0,R,mgm-3,256,R,ugm-3,63,R,ugm-3,455,R,ugm-3,4,R,ugm-3,32,R,ugm-3
09-01-1997,20:00,6.4,R,mgm-3,171,R,ugm-3,61,R,ugm-3,323,R,ugm-3,4,R,ugm-3,27,R,ugm-3
09-01-1997,21:00,5.5,R,mgm-3,140,R,ugm-3,59,R,ugm-3,273,R,ugm-3,4,R,ugm-3,35,R,ugm-3
09-01-1997,22:00,4.8,R,mgm-3,129,R,ugm-3,59,R,ugm-3,256,R,ugm-3,4,R,ugm-3,27,R,ugm-3
09-01-1997,23:00,3.7,R,mgm-3,101,R,ugm-3,57,R,ugm-3,212,R,ugm-3,6,R,ugm-3,16,R,ugm-3
09-01-1997,24:00,4.1,R,mgm-3,80,R,ugm-3,57,R,ugm-3,180,R,ugm-3,6,R,ugm-3,16,R,ugm-3
10-01-1997,01:00,1.0,R,mgm-3,11,R,ugm-3,38,R,ugm-3,55,R,ugm-3,10,R,ugm-3,11,R,ugm-3
10-01-1997,02:00,0.5,R,mgm-3,10,R,ugm-3,34,R,ugm-3,50,R,ugm-3,22,R,ugm-3,11,R,ugm-3
10-01-1997,03:00,0.1,R,mgm-3,3,R,ugm-3,27,R,ugm-3,31,R,ugm-3,30,R,ugm-3,8,R,ugm-3
10-01-1997,04:00,0.1,R,mgm-3,4,R,ugm-3,25,R,ugm-3,31,R,ugm-3,30,R,ugm-3,5,R,ugm-3
10-01-1997,05:00,0.1,R,mgm-3,4,R,ugm-3,17,R,ugm-3,23,R,ugm-3,30,R,ugm-3,5,R,ugm-3
10-01-1997,06:00,0.1,R,mgm-3,5,R,ugm-3,21,R,ugm-3,29,R,ugm-3,30,R,ugm-3,5,R,ugm-3
10-01-1997,07:00,0.5,R,mgm-3,35,R,ugm-3,32,R,ugm-3,86,R,ugm-3,24,R,ugm-3,5,R,ugm-3
10-01-1997,08:00,2.7,R,mgm-3,129,R,ugm-3,59,R,ugm-3,256,R,ugm-3,12,R,ugm-3,8,R,ugm-3
10-01-1997,09:00,6.7,R,mgm-3,308,R,ugm-3,82,R,ugm-3,552,R,ugm-3,10,R,ugm-3,19,R,ugm-3
10-01-1997,10:00,7.8,R,mgm-3,304,R,ugm-3,90,R,ugm-3,554,R,ugm-3,8,R,ugm-3,24,R,ugm-3
10-01-1997,11:00,,,,,,,,,,,,,,,,,,
10-01-1997,12:00,,,,,,,,,,,,,,,,,,
10-01-1997,13:00,,,,,,,,,,,,,,,,,,
10-01-1997,14:00,,,,,,,,,,,,,,,,,,
10-01-1997,15:00,,,,,,,,,,,,,,,,,,
10-01-1997,16:00,10.4,R,mgm-3,345,R,ugm-3,82,R,ugm-3,609,R,ugm-3,,,,19,R,ugm-3
10-01-1997,17:00,13.3,R,mgm-3,359,R,ugm-3,80,R,ugm-3,628,R,ugm-3,6,R,ugm-3,21,R,ugm-3
10-01-1997,18:00,18.0,R,mgm-3,450,R,ugm-3,88,R,ugm-3,775,R,ugm-3,6,R,ugm-3,24,R,ugm-3
10-01-1997,19:00,2.9,R,mgm-3,51,R,ugm-3,50,R,ugm-3,128,R,ugm-3,4,R,ugm-3,5,R,ugm-3
10-01-1997,20:00,2.0,R,mgm-3,33,R,ugm-3,44,R,ugm-3,94,R,ugm-3,8,R,ugm-3,5,R,ugm-3
10-01-1997,21:00,1.9,R,mgm-3,35,R,ugm-3,46,R,ugm-3,99,R,ugm-3,6,R,ugm-3,5,R,ugm-3
10-01-1997,22:00,1.7,R,mgm-3,35,R,ugm-3,42,R,ugm-3,96,R,ugm-3,10,R,ugm-3,5,R,ugm-3
10-01-1997,23:00,1.4,R,mgm-3,23,R,ugm-3,34,R,ugm-3,69,R,ugm-3,14,R,ugm-3,5,R,ugm-3
10-01-1997,24:00,1.0,R,mgm-3,13,R,ugm-3,31,R,ugm-3,50,R,ugm-3,16,R,ugm-3,5,R,ugm-3
11-01-1997,01:00,1.0,R,mgm-3,5,R,ugm-3,27,R,ugm-3,34,R,ugm-3,16,R,ugm-3,5,R,ugm-3
11-01-1997,02:00,0.9,R,mgm-3,3,R,ugm-3,34,R,ugm-3,38,R,ugm-3,14,R,ugm-3,5,R,ugm-3
11-01-1997,03:00,0.9,R,mgm-3,3,R,ugm-3,32,R,ugm-3,36,R,ugm-3,12,R,ugm-3,3,R,ugm-3
11-01-1997,04:00,1.0,R,mgm-3,3,R,ugm-3,34,R,ugm-3,38,R,ugm-3,10,R,ugm-3,0,R,ugm-3
11-01-1997,05:00,1.0,R,mgm-3,4,R,ugm-3,38,R,ugm-3,44,R,ugm-3,8,R,ugm-3,0,R,ugm-3
11-01-1997,06:00,1.0,R,mgm-3,6,R,ugm-3,36,R,ugm-3,46,R,ugm-3,8,R,ugm-3,0,R,ugm-3
11-01-1997,07:00,1.0,R,mgm-3,11,R,ugm-3,32,R,ugm-3,50,R,ugm-3,10,R,ugm-3,0,R,ugm-3
11-01-1997,08:00,1.3,R,mgm-3,20,R,ugm-3,36,R,ugm-3,67,R,ugm-3,8,R,ugm-3,0,R,ugm-3
11-01-1997,09:00,2.1,R,mgm-3,41,R,ugm-3,44,R,ugm-3,107,R,ugm-3,6,R,ugm-3,0,R,ugm-3
11-01-1997,10:00,3.9,R,mgm-3,103,R,ugm-3,46,R,ugm-3,202,R,ugm-3,6,R,ugm-3,3,R,ugm-3
11-01-1997,11:00,5.2,R,mgm-3,144,R,ugm-3,52,R,ugm-3,271,R,ugm-3,4,R,ugm-3,5,R,ugm-3
11-01-1997,12:00,7.0,R,mgm-3,174,R,ugm-3,52,R,ugm-3,317,R,ugm-3,6,R,ugm-3,5,R,ugm-3
11-01-1997,13:00,6.1,R,mgm-3,138,R,ugm-3,52,R,ugm-3,262,R,ugm-3,6,R,ugm-3,5,R,ugm-3
11-01-1997,14:00,6.3,R,mgm-3,146,R,ugm-3,48,R,ugm-3,271,R,ugm-3,6,R,ugm-3,5,R,ugm-3
11-01-1997,15:00,8.4,R,mgm-3,190,R,ugm-3,53,R,ugm-3,344,R,ugm-3,6,R,ugm-3,5,R,ugm-3
11-01-1997,16:00,8.5,R,mgm-3,208,R,ugm-3,55,R,ugm-3,372,R,ugm-3,4,R,ugm-3,8,R,ugm-3
11-01-1997,17:00,11.5,R,mgm-3,340,R,ugm-3,63,R,ugm-3,583,R,ugm-3,6,R,ugm-3,11,R,ugm-3
11-01-1997,18:00,11.4,R,mgm-3,299,R,ugm-3,61,R,ugm-3,518,R,ugm-3,6,R,ugm-3,11,R,ugm-3
11-01-1997,19:00,10.6,R,mgm-3,268,R,ugm-3,57,R,ugm-3,466,R,ugm-3,4,R,ugm-3,11,R,ugm-3
11-01-1997,20:00,9.4,R,mgm-3,348,R,ugm-3,61,R,ugm-3,592,R,ugm-3,6,R,ugm-3,13,R,ugm-3
11-01-1997,21:00,10.1,R,mgm-3,364,R,ugm-3,57,R,ugm-3,613,R,ugm-3,6,R,ugm-3,13,R,ugm-3
11-01-1997,22:00,10.1,R,mgm-3,408,R,ugm-3,55,R,ugm-3,678,R,ugm-3,6,R,ugm-3,16,R,ugm-3
11-01-1997,23:00,8.7,R,mgm-3,320,R,ugm-3,53,R,ugm-3,542,R,ugm-3,6,R,ugm-3,11,R,ugm-3
11-01-1997,24:00,9.4,R,mgm-3,291,R,ugm-3,53,R,ugm-3,499,R,ugm-3,6,R,ugm-3,11,R,ugm-3
12-01-1997,01:00,7.1,R,mgm-3,291,R,ugm-3,52,R,ugm-3,497,R,ugm-3,6,R,ugm-3,11,R,ugm-3
12-01-1997,02:00,2.9,R,mgm-3,115,R,ugm-3,44,R,ugm-3,220,R,ugm-3,2,R,ugm-3,3,R,ugm-3
12-01-1997,03:00,1.3,R,mgm-3,71,R,ugm-3,42,R,ugm-3,151,R,ugm-3,2,R,ugm-3,0,R,ugm-3
12-01-1997,04:00,0.6,R,mgm-3,33,R,ugm-3,38,R,ugm-3,88,R,ugm-3,4,R,ugm-3,0,R,ugm-3
12-01-1997,05:00,0.0,R,mgm-3,4,R,ugm-3,27,R,ugm-3,32,R,ugm-3,10,R,ugm-3,0,R,ugm-3
12-01-1997,06:00,0.0,R,mgm-3,5,R,ugm-3,25,R,ugm-3,32,R,ugm-3,12,R,ugm-3,0,R,ugm-3
12-01-1997,07:00,0.0,R,mgm-3,8,R,ugm-3,29,R,ugm-3,40,R,ugm-3,10,R,ugm-3,0,R,ugm-3
12-01-1997,08:00,0.0,R,mgm-3,11,R,ugm-3,34,R,ugm-3,52,R,ugm-3,10,R,ugm-3,0,R,ugm-3
12-01-1997,09:00,0.2,R,mgm-3,21,R,ugm-3,36,R,ugm-3,69,R,ugm-3,8,R,ugm-3,0,R,ugm-3
12-01-1997,10:00,1.0,R,mgm-3,63,R,ugm-3,46,R,ugm-3,141,R,ugm-3,6,R,ugm-3,0,R,ugm-3
12-01-1997,11:00,1.3,R,mgm-3,41,R,ugm-3,34,R,ugm-3,97,R,ugm-3,10,R,ugm-3,0,R,ugm-3
12-01-1997,12:00,2.0,R,mgm-3,51,R,ugm-3,38,R,ugm-3,117,R,ugm-3,8,R,ugm-3,0,R,ugm-3
12-01-1997,13:00,2.6,R,mgm-3,64,R,ugm-3,36,R,ugm-3,134,R,ugm-3,6,R,ugm-3,0,R,ugm-3
12-01-1997,14:00,1.3,R,mgm-3,43,R,ugm-3,34,R,ugm-3,99,R,ugm-3,10,R,ugm-3,0,R,ugm-3
12-01-1997,15:00,0.5,R,mgm-3,18,R,ugm-3,31,R,ugm-3,57,R,ugm-3,18,R,ugm-3,0,R,ugm-3
12-01-1997,16:00,0.6,R,mgm-3,26,R,ugm-3,31,R,ugm-3,71,R,ugm-3,14,R,ugm-3,0,R,ugm-3
12-01-1997,17:00,1.7,R,mgm-3,49,R,ugm-3,46,R,ugm-3,120,R,ugm-3,8,R,ugm-3,0,R,ugm-3
12-01-1997,18:00,0.8,R,mgm-3,38,R,ugm-3,42,R,ugm-3,99,R,ugm-3,8,R,ugm-3,0,R,ugm-3
12-01-1997,19:00,0.5,R,mgm-3,24,R,ugm-3,34,R,ugm-3,71,R,ugm-3,16,R,ugm-3,0,R,ugm-3
12-01-1997,20:00,0.2,R,mgm-3,16,R,ugm-3,29,R,ugm-3,53,R,ugm-3,16,R,ugm-3,0,R,ugm-3
12-01-1997,21:00,0.6,R,mgm-3,28,R,ugm-3,27,R,ugm-3,69,R,ugm-3,12,R,ugm-3,0,R,ugm-3
12-01-1997,22:00,0.3,R,mgm-3,18,R,ugm-3,25,R,ugm-3,52,R,ugm-3,16,R,ugm-3,0,R,ugm-3
12-01-1997,23:00,0.1,R,mgm-3,14,R,ugm-3,25,R,ugm-3,46,R,ugm-3,16,R,ugm-3,0,R,ugm-3
12-01-1997,24:00,0.1,R,mgm-3,9,R,ugm-3,21,R,ugm-3,34,R,ugm-3,22,R,ugm-3,0,R,ugm-3
13-01-1997,01:00,0.6,R,mgm-3,5,R,ugm-3,13,R,ugm-3,21,R,ugm-3,28,R,ugm-3,0,R,ugm-3
13-01-1997,02:00,0.5,R,mgm-3,3,R,ugm-3,11,R,ugm-3,15,R,ugm-3,30,R,ugm-3,0,R,ugm-3
13-01-1997,03:00,0.3,R,mgm-3,3,R,ugm-3,10,R,ugm-3,13,R,ugm-3,36,R,ugm-3,0,R,ugm-3
13-01-1997,04:00,0.3,R,mgm-3,3,R,ugm-3,6,R,ugm-3,10,R,ugm-3,40,R,ugm-3,0,R,ugm-3
13-01-1997,05:00,0.5,R,mgm-3,3,R,ugm-3,6,R,ugm-3,10,R,ugm-3,36,R,ugm-3,0,R,ugm-3
13-01-1997,06:00,0.8,R,mgm-3,11,R,ugm-3,25,R,ugm-3,42,R,ugm-3,22,R,ugm-3,0,R,ugm-3
13-01-1997,07:00,2.0,R,mgm-3,74,R,ugm-3,48,R,ugm-3,160,R,ugm-3,8,R,ugm-3,0,R,ugm-3